TimeEST,TemperatureF,Dew PointF,Humidity,Sea Level PressureIn,VisibilityMPH,Wind Direction,Wind SpeedMPH,Gust SpeedMPH,PrecipitationIn,Events,Conditions,WindDirDegrees,DateUTC
12:14 AM,17.1,14.0,88,29.78,3.0,SSE,4.6,-,0.00,Snow,Light Snow,160,2014-01-19 05:14:00
12:56 AM,17.1,14.0,88,29.82,5.0,SSE,4.6,-,0.00,Snow,Light Snow,150,2014-01-19 05:56:00
1:56 AM,18.0,15.1,88,29.81,4.0,SSE,3.5,-,0.00,Snow,Light Snow,150,2014-01-19 06:56:00
2:20 AM,18.0,14.0,84,29.76,4.0,South,4.6,-,0.00,Snow,Light Snow,170,2014-01-19 07:20:00
2:27 AM,18.0,14.0,84,29.75,3.0,South,5.8,-,0.00,Snow,Light Snow,180,2014-01-19 07:27:00
2:33 AM,18.0,15.1,88,29.75,2.5,South,4.6,-,0.00,Snow,Light Snow,180,2014-01-19 07:33:00
2:56 AM,18.0,15.1,88,29.80,2.5,South,5.8,-,0.00,Snow,Light Snow,180,2014-01-19 07:56:00
3:03 AM,18.0,15.1,88,29.74,3.0,South,5.8,-,0.00,Snow,Light Snow,180,2014-01-19 08:03:00
3:23 AM,17.1,15.1,92,29.75,6.0,South,3.5,-,0.00,,Overcast,190,2014-01-19 08:23:00
3:56 AM,17.1,14.0,88,29.80,7.0,Calm,Calm,-,0.00,,Overcast,0,2014-01-19 08:56:00
4:36 AM,17.1,14.0,88,29.74,9.0,SSW,4.6,-,0.00,,Overcast,210,2014-01-19 09:36:00
4:56 AM,17.1,14.0,88,29.79,9.0,SW,3.5,-,0.00,,Overcast,230,2014-01-19 09:56:00
5:03 AM,17.1,14.0,88,29.73,9.0,SW,3.5,-,N/A,,Overcast,220,2014-01-19 10:03:00
5:56 AM,12.9,10.9,92,29.80,8.0,WSW,5.8,-,N/A,,Mostly Cloudy,250,2014-01-19 10:56:00
6:03 AM,15.1,12.0,88,29.74,8.0,SW,5.8,-,N/A,,Mostly Cloudy,230,2014-01-19 11:03:00
6:56 AM,16.0,12.9,88,29.80,8.0,West,5.8,-,N/A,,Overcast,260,2014-01-19 11:56:00
7:44 AM,19.0,16.0,88,29.76,8.0,West,8.1,-,0.00,,Overcast,260,2014-01-19 12:44:00
7:56 AM,19.0,16.0,88,29.82,7.0,West,8.1,-,0.00,,Overcast,260,2014-01-19 12:56:00
8:49 AM,19.0,17.1,92,29.76,6.0,WSW,6.9,-,N/A,,Scattered Clouds,250,2014-01-19 13:49:00
8:56 AM,19.9,17.1,89,29.83,6.0,WSW,8.1,-,N/A,,Partly Cloudy,250,2014-01-19 13:56:00
9:10 AM,21.0,17.1,85,29.77,7.0,WSW,12.7,-,N/A,,Mostly Cloudy,250,2014-01-19 14:10:00
9:32 AM,21.9,17.1,82,29.78,7.0,WSW,13.8,-,N/A,,Scattered Clouds,250,2014-01-19 14:32:00
9:49 AM,21.9,17.1,82,29.78,7.0,WSW,13.8,23.0,N/A,,Mostly Cloudy,240,2014-01-19 14:49:00
9:56 AM,21.9,16.0,78,29.83,8.0,WSW,18.4,24.2,N/A,,Mostly Cloudy,250,2014-01-19 14:56:00
10:25 AM,21.9,16.0,78,29.79,10.0,WSW,19.6,24.2,N/A,,Overcast,250,2014-01-19 15:25:00
10:56 AM,21.9,15.1,75,29.84,10.0,WSW,19.6,27.6,N/A,,Scattered Clouds,250,2014-01-19 15:56:00
11:56 AM,23.0,16.0,74,29.81,10.0,WSW,15.0,-,N/A,,Clear,240,2014-01-19 16:56:00
12:56 PM,24.1,17.1,75,29.79,10.0,WSW,16.1,26.5,N/A,,Overcast,240,2014-01-19 17:56:00
1:56 PM,27.0,18.0,69,29.75,10.0,SW,17.3,27.6,N/A,,Partly Cloudy,230,2014-01-19 18:56:00
2:56 PM,28.9,18.0,64,29.74,10.0,WSW,18.4,27.6,N/A,,Mostly Cloudy,240,2014-01-19 19:56:00
3:56 PM,30.0,18.0,61,29.74,10.0,SW,18.4,31.1,N/A,,Scattered Clouds,230,2014-01-19 20:56:00
4:56 PM,28.9,18.0,64,29.75,10.0,WSW,17.3,26.5,N/A,,Clear,240,2014-01-19 21:56:00
5:56 PM,28.0,18.0,66,29.74,10.0,SW,20.7,26.5,N/A,,Clear,230,2014-01-19 22:56:00
6:56 PM,28.0,19.0,69,29.74,10.0,SW,16.1,25.3,N/A,,Clear,230,2014-01-19 23:56:00
7:56 PM,28.9,19.0,67,29.72,10.0,SW,15.0,21.9,N/A,,Clear,230,2014-01-20 00:56:00
8:56 PM,30.0,19.9,66,29.70,10.0,SW,15.0,28.8,N/A,,Clear,230,2014-01-20 01:56:00
9:56 PM,30.0,19.9,66,29.72,10.0,WSW,20.7,29.9,N/A,,Clear,240,2014-01-20 02:56:00
10:56 PM,30.0,21.0,69,29.70,10.0,WSW,19.6,28.8,N/A,,Clear,240,2014-01-20 03:56:00
11:56 PM,30.9,21.0,67,29.68,10.0,SW,16.1,25.3,N/A,,Clear,230,2014-01-20 04:56:00